Home   Weather   Mumbai   Past weeks

Flag for India Past Weather in Mumbai, Maharashtra, India — Yesterday and Last 2 Weeks

Now
79 °F

Clear.


Feels Like: 80 °F
Forecast: 77 / 88 °F
Wind: 3 mph from East

Location: Mumbai / Santacruz

Current Time: Jan 24, 2017 at 4:50:27 am

Latest Report: Jan 24, 2017 at 4:30 am


Visibility: 2 mi

Pressure: 29.92 "Hg

Humidity: 48%

Dew Point: 57 °F

Location of MumbaiLocation

Past Weather in Mumbai — Graph

°F

Mumbai Temperature Yesterday

Maximum temperature yesterday: 97 °F (at 2:30 pm)
Minimum temperature yesterday: 73 °F (at 4:00 am)
Average temperature yesterday: 85 °F

High & Low Weather Summary for the Past Weeks

 TemperatureHumidityPressure
High97 °F (Jan 23, 2:30 pm)83% (Jan 15, 4:00 am)30.07 "Hg (Jan 15, 4:00 am)
Low63 °F (Jan 11, 7:30 am)20% (Jan 23, 2:00 pm)29.80 "Hg (Jan 9, 3:30 am)
Average78 °F51%29.94 "Hg
* Reported Jan 9 3:30 am — Jan 24 3:30 am, Mumbai, Weather by CustomWeather, © 2017

Note: Actual official high and low records may vary slightly from our data, if they occured in-between our weather recording intervals... More about our weather records

Advertising

Mumbai Weather History for the Previous 24 Hours

Scroll right to see more
 ConditionsComfort  
Time TempWeatherWind HumidityBarometerVisibility
3:30 am
Tue, Jan 24
79 °FClear.7 mph48%29.92 "Hg1 mi
3:00 am79 °FClear.No wind48%29.92 "Hg1 mi
2:30 am81 °FClear.6 mph45%29.95 "Hg1 mi
2:00 am79 °FClear.No wind48%29.95 "Hg1 mi
1:30 am81 °FClear.No wind45%29.95 "Hg1 mi
1:00 am82 °FClear.No wind40%29.95 "Hg1 mi
12:30 am82 °FClear.No wind40%29.98 "Hg1 mi
12:00 am81 °FClear.No wind42%29.98 "Hg1 mi
11:30 pm
Mon, Jan 23
82 °FClear.No wind37%30.01 "Hg1 mi
11:00 pm82 °FClear.5 mph37%30.01 "Hg1 mi
10:30 pm84 °FClear.7 mph35%29.98 "Hg1 mi
10:00 pm84 °FClear.3 mph35%29.98 "Hg1 mi
9:30 pm84 °FClear.5 mph40%29.98 "Hg1 mi
9:00 pm84 °FClear.6 mph40%29.98 "Hg1 mi
8:30 pm84 °FClear.7 mph40%29.95 "Hg2 mi
8:00 pm84 °FClear.6 mph43%29.95 "Hg2 mi
7:30 pm86 °FClear.6 mph38%29.92 "Hg2 mi
7:00 pm88 °FClear.6 mph35%29.92 "Hg2 mi
6:30 pm88 °FClear.6 mph31%29.92 "Hg2 mi
6:00 pm90 °FClear.9 mph26%29.92 "Hg2 mi
5:30 pm91 °FClear.8 mph24%29.92 "Hg2 mi
5:00 pm91 °FClear.8 mph24%29.92 "Hg2 mi
4:30 pm93 °FClear.10 mph23%29.92 "Hg2 mi
4:00 pm93 °FClear.10 mph23%29.92 "Hg2 mi
3:00 pm97 °FClear.9 mph22%29.92 "Hg2 mi
2:30 pm97 °FClear.8 mph25%29.92 "Hg2 mi
2:00 pm95 °FClear.8 mph20%29.95 "Hg2 mi
1:30 pm95 °FClear.3 mph23%29.95 "Hg2 mi
1:00 pm95 °FClear.7 mph22%29.98 "Hg2 mi
12:30 pm93 °FClear.7 mph24%29.98 "Hg2 mi
12:00 pm93 °FClear.9 mph24%30.01 "Hg2 mi
11:30 am91 °FClear.9 mph26%30.04 "Hg1 mi
11:00 am90 °FClear.7 mph29%30.04 "Hg1 mi
10:30 am88 °FClear.7 mph33%30.04 "Hg1 mi
10:00 am84 °FClear.7 mph37%30.04 "Hg1 mi
9:30 am84 °FClear.7 mph37%30.04 "Hg1 mi
9:00 am82 °FClear.5 mph42%30.04 "Hg1 mi
8:30 am79 °FClear.5 mph51%30.04 "Hg1 mi
8:00 am79 °FClear.3 mph48%30.01 "Hg1 mi
7:30 am79 °FPassing clouds.3 mph48%30.01 "Hg1 mi
7:00 am79 °FClear.6 mph48%30.01 "Hg1 mi
6:30 am79 °FClear.5 mph48%29.98 "Hg1 mi
6:00 am77 °FClear.No wind54%29.98 "Hg1 mi
5:30 am77 °FClear.3 mph54%29.98 "Hg1 mi
5:00 am77 °FHaze.6 mph61%29.98 "Hg1 mi
4:30 am77 °FHaze.6 mph54%29.98 "Hg1 mi
4:00 am73 °FHaze.No wind69%29.98 "Hg1 mi
Weather by CustomWeather, © 2017

See weather overviewHow to use our weather pages